FW5435 Weather Reports


time (UTC)temp
C
wind
direction
speed
KPH
gust
KPH
rain 1hr
cm
rain 24hr
cm
rain mn
cm
humidity
%
barometer
mb
20220124165540 7 215 1.6 8.0 0.00 0.08 0.00 51 1012.7
20220124165052 7 0 0.0 4.8 0.00 0.08 0.00 54 1012.7
20220124164629 7 0 0.0 4.8 0.00 0.08 0.00 53 1012.9
20220124164035 7 200 0.0 4.8 0.00 0.08 0.00 51 1013.0
20220124163532 6 0 0.0 6.4 0.00 0.08 0.00 51 1013.0
20220124163115 6 277 1.6 6.4 0.00 0.08 0.00 53 1013.0
20220124162534 6 0 0.0 4.8 0.00 0.08 0.00 52 1013.1
20220124162036 6 223 1.6 4.8 0.00 0.08 0.00 53 1013.1
20220124161636 6 326 1.6 6.4 0.00 0.08 0.00 53 1013.1
20220124161038 6 355 0.0 6.4 0.00 0.08 0.00 54 1013.1
20220124160600 6 281 1.6 6.4 0.00 0.08 0.00 54 1013.0
20220124160201 6 250 3.2 6.4 0.00 0.08 0.00 54 1013.2
20220124155538 6 201 3.2 6.4 0.00 0.08 0.00 58 1013.2
20220124155033 6 217 0.0 3.2 0.00 0.08 0.00 58 1013.2
20220124154658 5 0 0.0 3.2 0.00 0.08 0.00 61 1013.2
20220124154034 5 0 0.0 3.2 0.00 0.08 0.00 60 1013.2
20220124153535 5 0 0.0 0.0 0.00 0.08 0.00 64 1013.1
20220124153112 4 0 0.0 0.0 0.00 0.08 0.00 70 1013.3
20220124152612 3 0 0.0 4.8 0.00 0.08 0.00 66 1013.3
20220124152035 3 0 0.0 4.8 0.00 0.08 0.00 69 1013.4
20220124151556 3 0 0.0 0.0 0.00 0.08 0.00 83 1013.3
20220124151040 2 0 0.0 0.0 0.00 0.08 0.00 85 1013.3
20220124150531 2 0 0.0 0.0 0.00 0.08 0.00 89 1013.3
20220124150134 1 0 0.0 0.0 0.00 0.08 0.00 89 1013.2
20220124145535 1 0 0.0 0.0 0.00 0.08 0.00 90 1013.2
20220124145035 1 0 0.0 0.0 0.00 0.08 0.00 91 1013.1
20220124144709 0 0 0.0 0.0 0.00 0.08 0.00 92 1013.1
20220124144033 0 0 0.0 0.0 0.00 0.08 0.00 92 1013.1
20220124143532 0 0 0.0 3.2 0.00 0.08 0.00 92 1013.1
20220124143055 0 0 0.0 3.2 0.00 0.08 0.00 92 1013.1
20220124142532 0 0 1.6 3.2 0.00 0.08 0.00 93 1013.1
20220124142038 0 0 0.0 0.0 0.00 0.08 0.00 93 1013.1
20220124141638 -1 0 0.0 3.2 0.00 0.08 0.00 93 1013.0
20220124141033 -1 0 0.0 3.2 0.00 0.08 0.00 93 1012.8
20220124140538 -1 0 0.0 0.0 0.00 0.08 0.00 93 1013.0
20220124140044 -1 0 0.0 0.0 0.00 0.08 0.00 93 1013.1
20220124135532 -2 0 0.0 0.0 0.00 0.08 0.00 93 1012.9
20220124135032 -2 0 0.0 0.0 0.00 0.08 0.00 93 1012.9
20220124134630 -2 0 0.0 3.2 0.00 0.08 0.00 93 1012.8
20220124134033 -2 0 0.0 3.2 0.00 0.08 0.00 93 1012.8
20220124133535 -2 217 0.0 3.2 0.00 0.08 0.00 93 1012.7
20220124133120 -2 0 0.0 0.0 0.00 0.08 0.00 93 1012.6
20220124132534 -2 0 0.0 0.0 0.00 0.08 0.00 93 1012.5
20220124132045 -2 0 0.0 0.0 0.00 0.08 0.00 93 1012.6
20220124131603 -3 0 0.0 0.0 0.00 0.08 0.00 93 1012.6
20220124131033 -3 0 0.0 0.0 0.00 0.08 0.00 92 1012.5
20220124130536 -3 0 0.0 6.4 0.00 0.08 0.00 92 1012.5
20220124130058 -3 0 1.6 6.4 0.00 0.08 0.00 92 1012.5
20220124125534 -3 233 0.0 3.2 0.00 0.08 0.00 92 1012.5
20220124125035 -3 0 0.0 0.0 0.00 0.08 0.00 92 1012.5
20220124124625 -3 0 0.0 0.0 0.00 0.08 0.00 92 1012.4
20220124124032 -3 0 0.0 0.0 0.00 0.08 0.00 92 1012.3
20220124123537 -3 0 0.0 0.0 0.00 0.08 0.00 92 1012.4
20220124123248 -3 0 0.0 0.0 0.00 0.08 0.00 92 1012.4
20220124122540 -3 0 0.0 3.2 0.00 0.08 0.00 92 1012.4
20220124122034 -3 0 0.0 3.2 0.00 0.08 0.00 92 1012.5
20220124121823 -2 0 0.0 0.0 0.00 0.08 0.00 92 1012.4
20220124121034 -2 0 0.0 0.0 0.00 0.08 0.00 92 1012.4
20220124120531 -2 0 0.0 0.0 0.00 0.08 0.00 92 1012.4
20220124120102 -2 0 0.0 0.0 0.00 0.08 0.00 92 1012.3
20220124115601 -2 0 0.0 3.2 0.00 0.08 0.00 92 1012.1
20220124115033 -2 0 0.0 3.2 0.00 0.08 0.00 92 1012.0
20220124114612 -2 233 0.0 3.2 0.00 0.08 0.00 92 1012.0
20220124114033 -2 0 0.0 0.0 0.00 0.08 0.00 92 1011.9
20220124113535 -2 0 0.0 0.0 0.00 0.08 0.00 92 1011.8
20220124113056 -2 0 0.0 0.0 0.00 0.08 0.00 92 1011.8
20220124112539 -2 0 0.0 3.2 0.00 0.08 0.00 92 1011.6
20220124112035 -2 0 0.0 3.2 0.00 0.08 0.00 92 1011.5
20220124111610 -2 0 0.0 1.6 0.00 0.08 0.00 92 1011.4
20220124111042 -2 0 0.0 0.0 0.00 0.08 0.00 92 1011.3
20220124110539 -2 0 0.0 1.6 0.00 0.08 0.00 92 1011.4
20220124110107 -2 0 0.0 3.2 0.00 0.08 0.00 92 1011.3
20220124105533 -2 0 0.0 3.2 0.00 0.08 0.00 92 1011.3
20220124105043 -2 0 0.0 0.0 0.00 0.08 0.00 92 1011.3
20220124104600 -3 0 0.0 0.0 0.00 0.08 0.00 92 1011.3
20220124104032 -3 0 0.0 0.0 0.00 0.08 0.00 92 1011.3
20220124103534 -3 0 0.0 1.6 0.00 0.08 0.00 92 1011.4
20220124103119 -3 0 0.0 1.6 0.00 0.08 0.00 92 1011.4
20220124102537 -3 0 0.0 3.2 0.00 0.08 0.00 92 1011.3
20220124102031 -3 0 0.0 3.2 0.00 0.08 0.00 92 1011.2
20220124101637 -3 0 0.0 3.2 0.00 0.08 0.00 92 1011.2
20220124101032 -3 0 0.0 3.2 0.00 0.08 0.00 92 1011.1
20220124100532 -3 0 0.0 3.2 0.00 0.08 0.00 92 1011.3
20220124100103 -3 0 0.0 0.0 0.00 0.08 0.00 92 1011.0
20220124095542 -3 0 0.0 0.0 0.00 0.08 0.00 92 1011.2
20220124095033 -3 0 0.0 0.0 0.00 0.08 0.00 92 1011.1
20220124094605 -3 0 0.0 0.0 0.00 0.08 0.00 92 1011.1
20220124094033 -3 0 0.0 0.0 0.00 0.08 0.00 92 1010.9
20220124093544 -3 0 0.0 0.0 0.00 0.08 0.00 92 1010.8
20220124093106 -3 0 0.0 0.0 0.00 0.08 0.00 92 1010.9
20220124092543 -3 0 0.0 0.0 0.00 0.08 0.00 92 1010.8
20220124092034 -3 0 0.0 0.0 0.00 0.08 0.00 92 1010.8
20220124091627 -3 0 0.0 0.0 0.00 0.08 0.00 92 1010.8
20220124091033 -3 0 0.0 0.0 0.00 0.08 0.00 92 1010.6
20220124090546 -3 0 0.0 0.0 0.00 0.08 0.00 92 1010.5
20220124090118 -3 0 0.0 0.0 0.00 0.08 0.00 92 1010.5
20220124085540 -3 0 0.0 0.0 0.00 0.08 0.00 92 1010.5
20220124085036 -3 0 0.0 0.0 0.00 0.08 0.00 92 1010.6
20220124084600 -3 0 0.0 0.0 0.00 0.08 0.00 92 1010.5
20220124084036 -3 0 0.0 0.0 0.00 0.08 0.00 92 1010.5
20220124083536 -3 0 0.0 0.0 0.00 0.08 0.00 92 1010.4
20220124083254 -3 0 0.0 0.0 0.00 0.08 0.00 92 1010.4
20220124082536 -3 0 0.0 0.0 0.00 0.08 0.00 92 1010.3
20220124082038 -3 0 0.0 0.0 0.00 0.08 0.00 92 1010.3
20220124081626 -3 0 0.0 3.2 0.00 0.08 0.00 92 1010.5
20220124081043 -3 0 0.0 3.2 0.00 0.08 0.00 92 1010.4
20220124080535 -3 232 0.0 3.2 0.00 0.08 0.00 92 1010.4
20220124080124 -3 0 0.0 0.0 0.00 0.08 0.00 92 1010.4
20220124075539 -3 0 0.0 0.0 0.00 0.08 0.00 92 1010.4
20220124075034 -3 0 0.0 0.0 0.00 0.08 0.00 91 1010.4
20220124074617 -3 0 0.0 0.0 0.00 0.08 0.00 91 1010.4
20220124074037 -3 0 0.0 0.0 0.00 0.08 0.00 91 1010.4
20220124073535 -3 0 0.0 0.0 0.00 0.08 0.00 91 1010.3
20220124073114 -3 0 0.0 0.0 0.00 0.08 0.00 91 1010.3
20220124072546 -3 0 0.0 0.0 0.00 0.08 0.00 91 1010.3
20220124072036 -3 0 0.0 0.0 0.00 0.08 0.00 91 1010.3
20220124071630 -3 0 0.0 0.0 0.00 0.08 0.00 91 1010.4
20220124071039 -3 0 0.0 0.0 0.00 0.08 0.00 91 1010.3
20220124070539 -3 0 0.0 0.0 0.00 0.08 0.00 91 1010.2
20220124070209 -3 0 0.0 0.0 0.00 0.08 0.00 91 1010.1
20220124065538 -3 0 0.0 0.0 0.00 0.08 0.00 91 1010.1
20220124065038 -3 0 0.0 0.0 0.00 0.08 0.00 91 1010.1
20220124064614 -3 0 0.0 0.0 0.00 0.08 0.00 91 1010.2
20220124064034 -3 0 0.0 0.0 0.00 0.08 0.00 91 1010.1
20220124063534 -3 0 0.0 0.0 0.00 0.08 0.00 91 1010.0
20220124063144 -3 0 0.0 0.0 0.00 0.08 0.00 91 1010.0
20220124062544 -3 0 0.0 0.0 0.00 0.08 0.00 91 1010.1
20220124062035 -3 0 0.0 0.0 0.00 0.08 0.00 91 1010.0
20220124061636 -3 0 0.0 0.0 0.00 0.08 0.00 91 1009.9
20220124061046 -2 0 0.0 0.0 0.00 0.08 0.00 91 1009.9
20220124060535 -2 0 0.0 3.2 0.00 0.08 0.00 91 1010.0
20220124060112 -2 0 0.0 3.2 0.00 0.08 0.00 91 1009.9
20220124055536 -2 0 0.0 0.0 0.00 0.08 0.00 91 1010.1
20220124055047 -2 0 0.0 0.0 0.00 0.08 0.00 91 1010.1
20220124054639 -2 0 0.0 0.0 0.00 0.08 0.00 91 1010.1
20220124054047 -2 0 0.0 0.0 0.00 0.08 0.00 91 1010.1
20220124053537 -2 0 0.0 0.0 0.00 0.08 0.00 90 1010.2
20220124053116 -2 0 0.0 0.0 0.00 0.08 0.00 90 1010.1
20220124052541 -2 0 0.0 0.0 0.00 0.08 0.00 90 1010.2
20220124052035 -2 0 0.0 4.8 0.00 0.08 0.00 90 1010.3
20220124051606 -2 0 0.0 4.8 0.00 0.08 0.00 90 1010.2
20220124051038 -2 233 1.6 4.8 0.00 0.08 0.00 91 1010.3
20220124050534 -2 0 0.0 3.2 0.00 0.08 0.00 91 1010.2
20220124050109 -2 0 0.0 3.2 0.00 0.08 0.00 91 1010.0
20220124045534 -2 0 0.0 3.2 0.00 0.08 0.08 90 1009.9
20220124045109 -2 0 0.0 0.0 0.00 0.08 0.08 90 1010.0
20220124044617 -2 0 0.0 0.0 0.00 0.08 0.08 91 1009.9
20220124044040 -2 0 0.0 0.0 0.00 0.08 0.08 90 1009.9
20220124043557 -2 0 0.0 0.0 0.00 0.08 0.08 90 1009.9
20220124043210 -2 0 0.0 0.0 0.00 0.08 0.08 90 1010.0
20220124042533 -2 0 0.0 0.0 0.00 0.08 0.08 90 1009.9
20220124042051 -2 0 0.0 0.0 0.00 0.08 0.08 90 1009.9
20220124041852 -2 0 0.0 0.0 0.00 0.08 0.08 90 1009.9
20220124041034 -2 0 0.0 0.0 0.00 0.08 0.08 90 1010.0
20220124040535 -2 0 0.0 0.0 0.00 0.08 0.08 91 1010.0
20220124040221 -2 0 0.0 0.0 0.00 0.08 0.08 90 1010.1
20220124035535 -2 0 0.0 0.0 0.00 0.08 0.08 90 1009.9
20220124035046 -2 0 0.0 0.0 0.00 0.08 0.08 90 1009.9
20220124034551 -2 0 0.0 0.0 0.00 0.08 0.08 90 1009.9
20220124034039 -2 0 0.0 0.0 0.00 0.08 0.08 90 1009.8
20220124033532 -2 0 0.0 0.0 0.00 0.08 0.08 90 1009.7
20220124033130 -2 0 0.0 0.0 0.00 0.08 0.08 90 1009.7
20220124032534 -2 0 0.0 0.0 0.00 0.08 0.08 89 1009.8
20220124032040 -2 0 0.0 3.2 0.00 0.08 0.08 89 1009.8
20220124031557 -2 0 0.0 3.2 0.00 0.08 0.08 89 1009.9
20220124031044 -2 0 0.0 0.0 0.00 0.08 0.08 89 1009.8
20220124030546 -2 0 0.0 3.2 0.00 0.08 0.08 89 1009.6
20220124030045 -2 0 0.0 3.2 0.00 0.08 0.08 89 1009.6
20220124025538 -1 0 0.0 3.2 0.00 0.08 0.08 89 1009.6
20220124025046 -1 0 0.0 0.0 0.00 0.08 0.08 89 1009.5
20220124024658 -1 0 0.0 3.2 0.00 0.08 0.08 89 1009.5
20220124024035 -1 0 0.0 3.2 0.00 0.08 0.08 89 1009.4
20220124023545 -1 217 0.0 3.2 0.00 0.08 0.08 89 1009.4
20220124023126 -1 0 0.0 0.0 0.00 0.08 0.08 89 1009.3
20220124022538 -1 0 0.0 0.0 0.00 0.08 0.08 89 1009.3
20220124022036 -1 0 0.0 0.0 0.00 0.08 0.08 89 1009.4
20220124021652 -1 0 0.0 3.2 0.00 0.08 0.08 89 1009.3
20220124021036 -1 0 0.0 3.2 0.00 0.08 0.08 89 1009.1
20220124020536 -1 0 0.0 3.2 0.00 0.08 0.08 89 1009.2
20220124020202 -1 0 0.0 0.0 0.00 0.08 0.08 89 1009.3
20220124015534 -1 0 0.0 0.0 0.00 0.08 0.08 88 1009.2
20220124015045 -1 0 0.0 0.0 0.00 0.08 0.08 88 1009.2
20220124014607 -1 0 0.0 0.0 0.00 0.08 0.08 88 1009.5
20220124014037 -1 0 0.0 3.2 0.00 0.08 0.08 88 1009.6
20220124013537 -1 0 0.0 3.2 0.00 0.08 0.08 88 1009.7
20220124013154 -1 0 0.0 0.0 0.00 0.08 0.08 88 1009.6
20220124012552 -1 0 0.0 0.0 0.00 0.08 0.08 88 1009.7
20220124012038 -1 0 0.0 0.0 0.00 0.08 0.08 88 1009.7
20220124011715 -1 0 0.0 0.0 0.00 0.08 0.08 88 1009.8
20220124011036 -1 0 0.0 0.0 0.00 0.08 0.08 87 1009.8
20220124010532 -1 0 0.0 0.0 0.00 0.08 0.08 87 1009.8
20220124010117 0 0 0.0 0.0 0.00 0.08 0.08 87 1009.8
20220124005537 0 0 0.0 0.0 0.00 0.08 0.08 87 1009.9
20220124005034 0 0 0.0 0.0 0.00 0.08 0.08 87 1010.0
20220124004553 0 0 0.0 0.0 0.00 0.08 0.08 86 1010.0
20220124004037 0 0 0.0 0.0 0.00 0.08 0.08 86 1010.0
20220124003538 0 0 0.0 0.0 0.00 0.08 0.08 86 1010.1
20220124003134 0 0 0.0 4.8 0.00 0.08 0.08 86 1010.1
20220124002539 0 0 0.0 4.8 0.00 0.08 0.08 86 1010.0
20220124002045 0 0 1.6 4.8 0.00 0.08 0.08 86 1010.1
20220124001604 0 217 0.0 3.2 0.00 0.08 0.08 85 1010.1
20220124001038 0 0 0.0 3.2 0.00 0.08 0.08 85 1010.1
20220124000531 0 217 0.0 3.2 0.00 0.08 0.08 85 1010.2
20220124000204 0 0 0.0 3.2 0.00 0.08 0.08 84 1010.1
20220123235533 0 0 0.0 3.2 0.00 0.08 0.08 84 1010.0
20220123235048 1 0 0.0 4.8 0.00 0.08 0.08 83 1010.1
20220123234640 1 0 0.0 4.8 0.00 0.08 0.08 82 1010.1
20220123234041 1 217 1.6 3.2 0.00 0.08 0.08 81 1010.2
20220123233535 1 217 0.0 3.2 0.00 0.08 0.08 80 1010.1
20220123233101 1 0 0.0 3.2 0.00 0.08 0.08 79 1010.0
20220123232551 2 0 0.0 4.8 0.00 0.08 0.08 79 1010.1
20220123232039 2 217 1.6 4.8 0.00 0.08 0.08 78 1010.1
20220123231618 2 217 0.0 3.2 0.00 0.08 0.08 78 1010.1
20220123231040 2 217 0.0 3.2 0.00 0.08 0.08 76 1010.2
20220123230542 2 0 0.0 3.2 0.00 0.08 0.08 76 1010.2
20220123230058 3 0 0.0 3.2 0.00 0.08 0.08 76 1010.1
20220123225545 3 217 0.0 3.2 0.00 0.08 0.08 75 1010.2
20220123225045 3 0 0.0 0.0 0.00 0.08 0.08 74 1010.2
20220123224605 3 0 0.0 3.2 0.00 0.08 0.08 73 1010.4
20220123224033 4 0 0.0 3.2 0.00 0.08 0.08 72 1010.3
20220123223541 4 217 1.6 3.2 0.00 0.08 0.08 73 1010.3
20220123223106 5 217 0.0 3.2 0.00 0.08 0.08 71 1010.4
20220123222534 5 0 0.0 3.2 0.00 0.08 0.08 69 1010.4
20220123222047 6 0 0.0 0.0 0.00 0.08 0.08 64 1010.2
20220123221623 6 0 0.0 0.0 0.00 0.08 0.08 61 1010.1
20220123221036 6 0 0.0 0.0 0.00 0.08 0.08 60 1010.1
20220123220532 6 0 0.0 0.0 0.00 0.08 0.08 60 1010.1
20220123220059 7 0 0.0 3.2 0.00 0.08 0.08 58 1010.3
20220123215542 7 0 0.0 4.8 0.00 0.13 0.08 56 1010.2
20220123215032 7 217 0.0 4.8 0.00 0.13 0.08 59 1010.3
20220123214621 7 0 0.0 6.4 0.00 0.13 0.08 55 1010.4
20220123214039 7 0 0.0 6.4 0.00 0.13 0.08 55 1010.3
20220123213541 7 225 1.6 6.4 0.00 0.13 0.08 53 1010.0
20220123213204 7 0 0.0 3.2 0.00 0.13 0.08 54 1010.1
20220123212534 7 0 0.0 6.4 0.00 0.13 0.08 55 1010.1
20220123212034 7 0 1.6 12.9 0.00 0.13 0.08 51 1010.1
20220123211606 7 213 3.2 12.9 0.00 0.13 0.08 51 1010.1
20220123211044 7 209 3.2 12.9 0.00 0.13 0.08 51 1010.0
20220123210534 7 223 3.2 8.0 0.00 0.13 0.08 52 1010.1
20220123210056 7 205 1.6 9.7 0.00 0.13 0.08 52 1010.3
20220123205536 7 173 1.6 9.7 0.00 0.23 0.08 51 1010.4
20220123205033 8 206 4.8 12.9 0.00 0.23 0.08 50 1010.6
20220123204555 8 230 3.2 12.9 0.00 0.23 0.08 50 1010.6
20220123204035 8 331 4.8 12.9 0.00 0.23 0.08 50 1010.7
20220123203538 8 223 1.6 12.9 0.00 0.23 0.08 51 1010.8
20220123203043 8 182 3.2 12.9 0.00 0.23 0.08 51 1010.7
20220123202539 8 188 3.2 12.9 0.03 0.23 0.08 49 1010.7
20220123202036 8 291 1.6 14.5 0.03 0.23 0.08 51 1010.8
20220123201609 8 228 3.2 14.5 0.03 0.23 0.08 49 1010.6
20220123201034 8 189 4.8 14.5 0.03 0.23 0.08 50 1010.7
20220123200536 8 227 3.2 8.0 0.03 0.23 0.08 51 1010.8
20220123200102 8 193 1.6 11.3 0.03 0.23 0.08 52 1010.9
20220123195549 8 216 3.2 11.3 0.03 0.36 0.08 53 1010.7
20220123195035 7 175 3.2 12.9 0.03 0.36 0.08 54 1010.9
20220123194600 7 197 3.2 12.9 0.03 0.36 0.08 53 1011.0
20220123194045 7 221 4.8 12.9 0.03 0.36 0.08 52 1010.8
20220123193532 7 200 4.8 12.9 0.03 0.36 0.08 54 1010.8
20220123193047 7 214 4.8 12.9 0.05 0.36 0.08 54 1011.1
20220123192536 7 204 3.2 11.3 0.03 0.33 0.05 54 1011.1
20220123192032 7 211 3.2 11.3 0.03 0.33 0.05 52 1011.3
20220123191628 7 219 1.6 11.3 0.03 0.33 0.05 53 1011.4
20220123191036 7 198 1.6 12.9 0.03 0.33 0.05 54 1011.5
20220123190604 7 127 3.2 12.9 0.03 0.33 0.05 52 1011.6
20220123190231 7 178 4.8 12.9 0.05 0.33 0.05 51 1011.6
20220123185534 7 213 1.6 8.0 0.05 0.51 0.05 55 1011.6
20220123185038 6 0 3.2 9.7 0.05 0.51 0.05 54 1011.6
20220123184604 6 214 1.6 11.3 0.05 0.51 0.05 58 1011.9
20220123184032 6 186 3.2 11.3 0.05 0.51 0.05 53 1011.8
20220123183547 6 207 1.6 16.1 0.05 0.51 0.05 55 1012.0
20220123183146 6 202 3.2 16.1 0.03 0.48 0.03 53 1012.1
20220123182535 6 234 6.4 16.1 0.03 0.48 0.03 53 1012.2
20220123182035 6 213 4.8 12.9 0.03 0.48 0.03 55 1012.3
20220123181707 5 204 4.8 12.9 0.03 0.48 0.03 52 1012.4
20220123181038 5 318 3.2 12.9 0.03 0.48 0.03 53 1012.5
20220123180534 5 225 1.6 16.1 0.03 0.48 0.03 55 1012.3
20220123180122 5 236 4.8 16.1 0.00 0.46 0.00 54 1012.5
20220123175534 5 200 3.2 12.9 0.00 0.46 0.00 54 1012.6
20220123175035 5 0 4.8 12.9 0.00 0.46 0.00 54 1012.8
20220123174555 5 199 1.6 6.4 0.00 0.46 0.00 56 1012.8
20220123174034 4 0 1.6 8.0 0.00 0.46 0.00 56 1013.0
20220123173537 4 196 3.2 8.0 0.00 0.46 0.00 58 1013.2
20220123173102 4 0 1.6 9.7 0.00 0.46 0.00 56 1013.5
20220123172536 4 218 0.0 9.7 0.00 0.46 0.00 58 1013.7
20220123172103 4 199 3.2 12.9 0.00 0.46 0.00 58 1014.1
20220123171557 3 0 3.2 12.9 0.00 0.46 0.00 59 1014.4
20220123171034 3 248 0.0 9.7 0.00 0.46 0.00 61 1014.3
20220123170533 3 242 1.6 9.7 0.00 0.46 0.00 60 1014.5
20220123170235 3 197 1.6 9.7 0.00 0.46 0.00 59 1014.7